This is the latest recevied weather packets stored in our database for station/object IZ6UQU-13. If no packets are shown the sender has not sent any weather packets the latest 10 day(s).
| Time | Temp. | Humidity | Pressure | Rain* | Wind** | Luminosity | Snow |
|---|---|---|---|---|---|---|---|
| 1777893909 | 20° C | 54% | 959.5 hPa | 0 mm | - | - | - |
| 1777893609 | 20.56° C | 54% | 959.4 hPa | 0 mm | - | - | - |
| 1777893309 | 20° C | 57% | 959.6 hPa | 0 mm | - | - | - |
| 1777893009 | 19.44° C | 56% | 959.6 hPa | 0 mm | - | - | - |
| 1777892709 | 19.44° C | 56% | 959.7 hPa | 0 mm | - | - | - |
| 1777892409 | 19.44° C | 57% | 959.7 hPa | 0 mm | - | - | - |
| 1777892109 | 19.44° C | 57% | 959.8 hPa | 0 mm | - | - | - |
| 1777891809 | 19.44° C | 58% | 959.8 hPa | 0 mm | - | - | - |
| 1777891509 | 19.44° C | 58% | 959.9 hPa | 0 mm | - | - | - |
| 1777891209 | 19.44° C | 59% | 959.8 hPa | 0 mm | - | - | - |
| 1777890909 | 19.44° C | 58% | 959.8 hPa | 0 mm | - | - | - |
| 1777890609 | 19.44° C | 57% | 959.8 hPa | 0 mm | - | - | - |
| 1777890309 | 19.44° C | 59% | 959.8 hPa | 0 mm | - | - | - |
| 1777890009 | 19.44° C | 58% | 959.9 hPa | 0 mm | - | - | - |
| 1777889709 | 19.44° C | 58% | 959.9 hPa | 0 mm | - | - | - |
| 1777889409 | 20° C | 59% | 959.9 hPa | 0 mm | - | - | - |
| 1777889109 | 19.44° C | 61% | 960 hPa | 0 mm | - | - | - |
| 1777888809 | 18.89° C | 61% | 960.1 hPa | 0 mm | - | - | - |
| 1777888509 | 18.33° C | 62% | 960 hPa | 0 mm | - | - | - |
| 1777888209 | 18.89° C | 62% | 960.1 hPa | 0 mm | - | - | - |
| 1777887909 | 18.89° C | 62% | 960.1 hPa | 0 mm | - | - | - |
| 1777887609 | 18.33° C | 64% | 960.3 hPa | 0 mm | - | - | - |
| 1777887309 | 18.33° C | 64% | 960.2 hPa | 0 mm | - | - | - |
| 1777887009 | 17.78° C | 66% | 960.3 hPa | 0 mm | - | - | - |
| 1777886709 | 17.22° C | 67% | 960.4 hPa | 0 mm | - | - | - |
* Rain latest hour (hover to see other rain measurements)
** Current wind speed in m/s (hover to see current wind gust speed)